DW4805 Weather Reports


Display with metric or nautical units.
time (UTC)temp
F
wind
direction
speed
MPH
gust
MPH
rain 1hr
in
rain 24hr
in
rain mn
in
humidity
%
barometer
mb
20260506043105 65 319 7.0 12.0 0.00 0.00 0.00 74 1009.8
20260506041600 66 317 7.0 14.0 0.00 0.00 0.00 72 1010.0
20260506040105 66 281 3.0 14.0 0.00 0.00 0.00 72 1009.9
20260506034605 67 302 7.0 14.0 0.00 0.00 0.00 71 1009.6
20260506033103 67 282 7.0 13.0 0.00 0.00 0.00 70 1009.3
20260506031559 68 337 6.0 11.0 0.00 0.00 0.00 70 1008.8
20260506030056 68 323 7.0 12.0 0.00 0.00 0.00 69 1008.3
20260506024557 69 325 6.0 15.0 0.00 0.00 0.00 69 1008.3
20260506023051 70 281 5.0 14.0 0.00 0.00 0.00 69 1007.9
20260506021602 70 317 8.0 17.0 0.00 0.00 0.00 68 1007.9
20260506020050 71 290 7.0 12.0 0.00 0.00 0.00 67 1007.4
20260506014553 72 286 7.0 15.0 0.00 0.00 0.00 66 1006.9
20260506013103 72 292 5.0 9.0 0.00 0.00 0.00 66 1006.6
20260506011603 73 324 5.0 10.0 0.00 0.00 0.00 65 1006.1
20260506010053 74 300 4.0 10.0 0.00 0.00 0.00 65 1005.9
20260506004555 74 285 7.0 16.0 0.00 0.00 0.00 63 1005.8
20260506003055 75 306 5.0 12.0 0.00 0.00 0.00 60 1005.4
20260506001555 76 290 3.0 12.0 0.00 0.00 0.00 61 1005.6
20260506000054 77 294 4.0 10.0 0.00 0.00 0.00 60 1005.6
20260505234605 78 286 6.0 14.0 0.00 0.00 0.00 60 1005.3
20260505233051 79 286 6.0 13.0 0.00 0.00 0.00 60 1004.9
20260505231606 81 315 8.0 14.0 0.00 0.00 0.00 59 1004.7
20260505230054 83 321 4.0 13.0 0.00 0.00 0.00 51 1004.5
20260505224556 84 290 6.0 14.0 0.00 0.00 0.00 49 1004.4
20260505223104 87 313 5.0 9.0 0.00 0.00 0.00 49 1004.2
20260505221600 87 282 2.0 4.0 0.00 0.00 0.00 51 1004.0
20260505220056 87 296 1.0 4.0 0.00 0.00 0.00 52 1003.8
20260505214616 88 295 1.0 3.0 0.00 0.00 0.00 49 1004.0
20260505213102 89 286 0.0 2.0 0.00 0.00 0.00 48 1004.0
20260505211603 90 318 0.0 3.0 0.00 0.00 0.00 47 1004.0
20260505210052 90 173 3.0 7.0 0.00 0.00 0.00 45 1004.3
20260505204551 90 149 2.0 7.0 0.00 0.00 0.00 47 1004.6
20260505203054 90 141 2.0 8.0 0.00 0.00 0.00 46 1004.6
20260505201557 91 283 1.0 7.0 0.00 0.00 0.00 47 1004.9
20260505200059 89 154 2.0 7.0 0.00 0.00 0.00 50 1005.0
20260505194557 90 175 3.0 11.0 0.00 0.00 0.00 50 1005.0
20260505193054 89 175 4.0 12.0 0.00 0.00 0.00 52 1005.1
20260505191552 89 134 5.0 10.0 0.00 0.00 0.00 55 1005.0
20260505190054 87 125 5.0 12.0 0.00 0.00 0.00 58 1005.0
20260505184553 87 245 5.0 13.0 0.00 0.00 0.00 56 1005.1
20260505183105 86 184 5.0 18.0 0.00 0.00 0.00 58 1005.2
20260505181552 85 186 4.0 16.0 0.00 0.00 0.00 62 1005.4
20260505180056 84 150 7.0 15.0 0.00 0.00 0.00 67 1005.5
20260505174559 82 129 6.0 18.0 0.00 0.00 0.00 67 1005.6
20260505173050 81 119 7.0 14.0 0.00 0.00 0.00 69 1005.5
20260505171553 80 150 7.0 13.0 0.00 0.00 0.00 70 1005.7
20260505170055 80 143 7.0 14.0 0.00 0.00 0.00 70 1005.6
20260505164555 79 180 6.0 14.0 0.00 0.00 0.00 71 1005.6
20260505163050 80 153 8.0 19.0 0.00 0.00 0.00 72 1005.4
20260505161600 79 147 7.0 17.0 0.00 0.00 0.00 72 1005.3
20260505153102 76 149 7.0 17.0 0.00 0.00 0.00 77 1005.1
20260505151604 75 177 6.0 18.0 0.00 0.00 0.00 79 1005.2
20260505140110 72 222 7.0 19.0 0.00 0.00 0.00 82 1005.2
20260505130111 71 152 7.0 14.0 0.00 0.00 0.00 85 1005.0
20260505124614 70 146 6.0 14.0 0.00 0.00 0.00 86 1005.0
20260505123117 69 149 5.0 13.0 0.00 0.00 0.00 86 1004.9
20260505121559 69 152 3.0 12.0 0.00 0.00 0.00 86 1004.7
20260505120058 70 115 6.0 15.0 0.00 0.00 0.00 86 1004.6
20260505114602 69 119 7.0 12.0 0.00 0.00 0.00 86 1004.3
20260505113115 69 173 6.0 14.0 0.00 0.00 0.00 86 1004.4
20260505111605 69 154 7.0 12.0 0.00 0.00 0.00 86 1004.1
20260505101555 69 157 8.0 20.0 0.00 0.00 0.00 87 1003.9
20260505100059 69 205 7.0 16.0 0.00 0.00 0.00 87 1004.2
20260505094556 68 119 6.0 12.0 0.00 0.00 0.00 87 1004.3
20260505093059 69 141 6.0 15.0 0.00 0.00 0.00 87 1004.5
20260505091606 69 113 6.0 15.0 0.00 0.00 0.00 87 1004.6
20260505090054 69 170 5.0 13.0 0.00 0.00 0.00 86 1004.8
20260505084556 69 144 6.0 15.0 0.00 0.00 0.00 86 1004.8
20260505083102 69 173 4.0 17.0 0.00 0.00 0.00 85 1004.9
20260505081605 69 142 7.0 15.0 0.00 0.00 0.00 84 1004.8
20260505074552 70 158 6.0 13.0 0.00 0.00 0.00 82 1005.0
20260505073111 70 139 5.0 16.0 0.00 0.00 0.00 80 1005.3
20260505071601 71 142 6.0 14.0 0.00 0.00 0.00 79 1005.5
20260505064554 71 166 6.0 13.0 0.00 0.00 0.00 78 1006.0
20260505063055 71 140 6.0 11.0 0.00 0.00 0.00 77 1006.1
20260505061554 71 146 7.0 13.0 0.00 0.00 0.00 77 1006.0
20260505060056 71 142 6.0 15.0 0.00 0.00 0.00 76 1006.1
20260505054553 72 159 7.0 13.0 0.00 0.00 0.00 75 1006.1
20260505053056 72 177 7.0 14.0 0.00 0.00 0.00 75 1005.9
20260505051607 72 138 7.0 15.0 0.00 0.00 0.00 74 1005.9
20260505050104 73 165 5.0 15.0 0.00 0.00 0.00 75 1006.1